Time,TemperatureF,DewpointF,PressureIn,WindDirection,WindDirectionDegrees,WindSpeedMPH,WindSpeedGustMPH,Humidity,HourlyPrecipIn,Conditions,Clouds,dailyrainin,SoftwareType,DateUTC
2013-01-05 00:07:00,29.9,22.0,29.86,WSW,250,3.0,5.0,71,0.00,,,0.00,weatherlink.com 1.10,2013-01-05 05:07:00,
2013-01-05 00:21:00,29.8,22.0,29.86,SSW,212,5.0,5.0,72,0.00,,,0.00,weatherlink.com 1.10,2013-01-05 05:21:00,
2013-01-05 00:36:00,29.7,21.0,29.86,West,276,3.0,5.0,71,0.00,,,0.00,weatherlink.com 1.10,2013-01-05 05:36:00,
2013-01-05 00:51:00,29.6,21.0,29.87,West,263,3.0,6.0,71,0.00,,,0.00,weatherlink.com 1.10,2013-01-05 05:51:00,
2013-01-05 01:07:00,29.6,21.0,29.87,SW,235,1.0,6.0,71,0.00,,,0.00,weatherlink.com 1.10,2013-01-05 06:07:00,
2013-01-05 01:22:00,29.6,21.0,29.88,WSW,255,6.0,7.0,71,0.00,,,0.00,weatherlink.com 1.10,2013-01-05 06:22:00,
2013-01-05 01:37:00,29.6,21.0,29.89,WSW,245,7.0,7.0,71,0.00,,,0.00,weatherlink.com 1.10,2013-01-05 06:37:00,
2013-01-05 01:52:00,29.6,21.0,29.89,WNW,283,3.0,5.0,70,0.00,,,0.00,weatherlink.com 1.10,2013-01-05 06:52:00,
2013-01-05 02:07:00,29.5,21.0,29.91,West,262,3.0,6.0,70,0.00,,,0.00,weatherlink.com 1.10,2013-01-05 07:07:00,
2013-01-05 02:22:00,29.6,21.0,29.92,West,264,4.0,8.0,70,0.00,,,0.00,weatherlink.com 1.10,2013-01-05 07:22:00,
2013-01-05 02:37:00,29.8,21.0,29.93,SW,221,1.0,4.0,70,0.00,,,0.00,weatherlink.com 1.10,2013-01-05 07:37:00,
2013-01-05 02:52:00,29.9,21.0,29.93,SW,221,1.0,5.0,69,0.00,,,0.00,weatherlink.com 1.10,2013-01-05 07:52:00,
2013-01-05 03:07:00,30.0,21.0,29.93,West,276,2.0,5.0,69,0.00,,,0.00,weatherlink.com 1.10,2013-01-05 08:07:00,
2013-01-05 03:22:00,30.1,21.0,29.93,WSW,252,2.0,8.0,69,0.00,,,0.00,weatherlink.com 1.10,2013-01-05 08:22:00,
2013-01-05 03:37:00,30.2,21.0,29.93,WSW,242,3.0,7.0,69,0.00,,,0.00,weatherlink.com 1.10,2013-01-05 08:37:00,
2013-01-05 03:52:00,30.5,21.0,29.93,SSW,211,0.0,6.0,68,0.00,,,0.00,weatherlink.com 1.10,2013-01-05 08:52:00,
2013-01-05 04:07:00,30.1,21.0,29.93,SW,225,4.0,5.0,68,0.00,,,0.00,weatherlink.com 1.10,2013-01-05 09:07:00,
2013-01-05 04:22:00,29.9,20.0,29.94,West,265,3.0,8.0,68,0.00,,,0.00,weatherlink.com 1.10,2013-01-05 09:22:00,
2013-01-05 04:37:00,29.7,21.0,29.94,SW,214,3.0,8.0,69,0.00,,,0.00,weatherlink.com 1.10,2013-01-05 09:37:00,
2013-01-05 04:52:00,29.9,21.0,29.95,WSW,251,2.0,8.0,69,0.00,,,0.00,weatherlink.com 1.10,2013-01-05 09:52:00,
2013-01-05 05:07:00,30.1,21.0,29.96,SW,228,2.0,7.0,68,0.00,,,0.00,weatherlink.com 1.10,2013-01-05 10:07:00,
2013-01-05 05:22:00,30.4,21.0,29.96,SSW,200,3.0,8.0,68,0.00,,,0.00,weatherlink.com 1.10,2013-01-05 10:22:00,
2013-01-05 05:37:00,30.6,21.0,29.97,SSW,203,3.0,9.0,68,0.00,,,0.00,weatherlink.com 1.10,2013-01-05 10:37:00,
2013-01-05 05:52:00,30.5,21.0,29.98,SSW,211,2.0,8.0,68,0.00,,,0.00,weatherlink.com 1.10,2013-01-05 10:52:00,
2013-01-05 06:07:00,30.4,21.0,29.99,SW,224,3.0,6.0,68,0.00,,,0.00,weatherlink.com 1.10,2013-01-05 11:07:00,
2013-01-05 06:22:00,30.3,21.0,30.00,WSW,246,5.0,7.0,69,0.00,,,0.00,weatherlink.com 1.10,2013-01-05 11:22:00,
2013-01-05 06:37:00,30.3,21.0,30.01,West,269,3.0,7.0,69,0.00,,,0.00,weatherlink.com 1.10,2013-01-05 11:37:00,
2013-01-05 06:52:00,30.3,21.0,30.02,WSW,243,2.0,8.0,69,0.00,,,0.00,weatherlink.com 1.10,2013-01-05 11:52:00,
2013-01-05 07:07:00,30.2,22.0,30.03,SSE,159,1.0,7.0,70,0.00,,,0.00,weatherlink.com 1.10,2013-01-05 12:07:00,
2013-01-05 07:23:00,30.1,21.0,30.03,SW,214,2.0,6.0,70,0.00,,,0.00,weatherlink.com 1.10,2013-01-05 12:23:00,
2013-01-05 07:38:00,30.2,22.0,30.05,WSW,250,2.0,7.0,70,0.00,,,0.00,weatherlink.com 1.10,2013-01-05 12:38:00,
2013-01-05 07:53:00,30.6,22.0,30.05,WNW,298,2.0,6.0,70,0.00,,,0.00,weatherlink.com 1.10,2013-01-05 12:53:00,
2013-01-05 08:08:00,31.2,22.0,30.07,SSW,200,1.0,8.0,69,0.00,,,0.00,weatherlink.com 1.10,2013-01-05 13:08:00,
2013-01-05 08:23:00,31.9,22.0,30.07,SW,232,2.0,6.0,67,0.00,,,0.00,weatherlink.com 1.10,2013-01-05 13:23:00,
2013-01-05 08:38:00,32.5,23.0,30.08,WNW,290,3.0,6.0,67,0.00,,,0.00,weatherlink.com 1.10,2013-01-05 13:38:00,
2013-01-05 08:53:00,33.2,23.0,30.09,West,263,7.0,9.0,66,0.00,,,0.00,weatherlink.com 1.10,2013-01-05 13:53:00,
2013-01-05 09:08:00,34.0,23.0,30.10,WNW,288,4.0,9.0,64,0.00,,,0.00,weatherlink.com 1.10,2013-01-05 14:08:00,
2013-01-05 09:23:00,34.7,23.0,30.11,West,274,4.0,10.0,63,0.00,,,0.00,weatherlink.com 1.10,2013-01-05 14:23:00,
2013-01-05 09:38:00,35.5,24.0,30.12,West,264,3.0,12.0,62,0.00,,,0.00,weatherlink.com 1.10,2013-01-05 14:38:00,
2013-01-05 09:53:00,36.2,24.0,30.13,WNW,286,3.0,10.0,61,0.00,,,0.00,weatherlink.com 1.10,2013-01-05 14:53:00,
2013-01-05 10:08:00,37.0,24.0,30.13,WNW,287,2.0,9.0,60,0.00,,,0.00,weatherlink.com 1.10,2013-01-05 15:08:00,
2013-01-05 10:23:00,38.0,24.0,30.12,WNW,298,3.0,9.0,58,0.00,,,0.00,weatherlink.com 1.10,2013-01-05 15:23:00,
2013-01-05 10:38:00,38.9,25.0,30.12,NW,308,1.0,5.0,57,0.00,,,0.00,weatherlink.com 1.10,2013-01-05 15:38:00,
2013-01-05 10:53:00,39.9,25.0,30.11,NW,310,3.0,9.0,55,0.00,,,0.00,weatherlink.com 1.10,2013-01-05 15:53:00,
2013-01-05 11:08:00,40.6,24.0,30.12,NNW,347,4.0,11.0,52,0.00,,,0.00,weatherlink.com 1.10,2013-01-05 16:08:00,
2013-01-05 11:23:00,41.3,24.0,30.12,NE,49,1.0,15.0,51,0.00,,,0.00,weatherlink.com 1.10,2013-01-05 16:23:00,
2013-01-05 11:38:00,41.8,24.0,30.12,NNW,335,3.0,11.0,49,0.00,,,0.00,weatherlink.com 1.10,2013-01-05 16:38:00,
2013-01-05 11:53:00,42.4,23.0,30.11,West,262,1.0,7.0,47,0.01,,,0.01,weatherlink.com 1.10,2013-01-05 16:53:00,
2013-01-05 12:08:00,42.4,23.0,30.11,NW,319,8.0,11.0,46,0.01,,,0.01,weatherlink.com 1.10,2013-01-05 17:08:00,
2013-01-05 12:23:00,42.4,23.0,30.12,NW,304,1.0,10.0,46,0.01,,,0.01,weatherlink.com 1.10,2013-01-05 17:23:00,
2013-01-05 12:38:00,42.8,23.0,30.12,NNW,341,1.0,7.0,46,0.02,,,0.02,weatherlink.com 1.10,2013-01-05 17:38:00,
2013-01-05 12:54:00,43.0,22.0,30.12,West,274,2.0,12.0,44,0.01,,,0.02,weatherlink.com 1.10,2013-01-05 17:54:00,
2013-01-05 13:09:00,43.3,24.0,30.12,NW,309,3.0,10.0,46,0.01,,,0.02,weatherlink.com 1.10,2013-01-05 18:09:00,
2013-01-05 13:24:00,43.6,23.0,30.12,WNW,293,5.0,12.0,44,0.02,,,0.03,weatherlink.com 1.10,2013-01-05 18:24:00,
2013-01-05 13:39:00,43.2,23.0,30.12,North,6,2.0,10.0,45,0.01,,,0.03,weatherlink.com 1.10,2013-01-05 18:39:00,
2013-01-05 13:54:00,43.1,24.0,30.12,WNW,298,1.0,6.0,47,0.01,,,0.03,weatherlink.com 1.10,2013-01-05 18:54:00,
2013-01-05 14:09:00,43.6,23.0,30.13,NW,323,0.0,9.0,44,0.02,,,0.04,weatherlink.com 1.10,2013-01-05 19:09:00,
2013-01-05 14:24:00,43.3,23.0,30.13,NW,323,1.0,8.0,44,0.01,,,0.04,weatherlink.com 1.10,2013-01-05 19:24:00,
2013-01-05 14:39:00,43.7,23.0,30.13,NNW,340,2.0,4.0,44,0.01,,,0.04,weatherlink.com 1.10,2013-01-05 19:39:00,
2013-01-05 14:54:00,43.1,23.0,30.14,NNW,345,1.0,5.0,45,0.01,,,0.04,weatherlink.com 1.10,2013-01-05 19:54:00,
2013-01-05 15:09:00,42.9,21.0,30.16,NNE,13,2.0,4.0,42,0.00,,,0.04,weatherlink.com 1.10,2013-01-05 20:09:00,
2013-01-05 15:24:00,42.5,21.0,30.16,WSW,249,2.0,4.0,43,0.00,,,0.04,weatherlink.com 1.10,2013-01-05 20:24:00,
2013-01-05 15:39:00,42.2,21.0,30.16,North,9,0.0,2.0,43,0.00,,,0.04,weatherlink.com 1.10,2013-01-05 20:39:00,
2013-01-05 15:54:00,41.7,21.0,30.16,North,360,0.0,1.0,44,0.00,,,0.04,weatherlink.com 1.10,2013-01-05 20:54:00,
2013-01-05 16:09:00,41.1,22.0,30.18,NNW,338,0.0,2.0,46,0.00,,,0.04,weatherlink.com 1.10,2013-01-05 21:09:00,
2013-01-05 16:24:00,38.1,20.0,30.18,NNW,338,0.0,1.0,49,0.00,,,0.04,weatherlink.com 1.10,2013-01-05 21:24:00,
2013-01-05 16:39:00,35.7,22.0,30.19,NNW,338,0.0,0.0,57,0.00,,,0.04,weatherlink.com 1.10,2013-01-05 21:39:00,
2013-01-05 16:54:00,33.8,21.0,30.19,ESE,121,0.0,1.0,61,0.00,,,0.04,weatherlink.com 1.10,2013-01-05 21:54:00,
2013-01-05 17:09:00,32.1,22.0,30.19,ESE,121,0.0,0.0,66,0.00,,,0.04,weatherlink.com 1.10,2013-01-05 22:09:00,
2013-01-05 17:24:00,30.6,21.0,30.20,ESE,121,0.0,0.0,68,0.00,,,0.04,weatherlink.com 1.10,2013-01-05 22:24:00,
2013-01-05 17:39:00,29.5,22.0,30.20,ESE,121,0.0,0.0,73,0.00,,,0.04,weatherlink.com 1.10,2013-01-05 22:39:00,
2013-01-05 17:54:00,28.6,21.0,30.21,ESE,121,0.0,0.0,74,0.00,,,0.04,weatherlink.com 1.10,2013-01-05 22:54:00,
2013-01-05 18:09:00,27.8,21.0,30.21,ESE,121,0.0,0.0,76,0.00,,,0.04,weatherlink.com 1.10,2013-01-05 23:09:00,
2013-01-05 18:24:00,27.3,21.0,30.22,ESE,121,0.0,0.0,77,0.00,,,0.04,weatherlink.com 1.10,2013-01-05 23:24:00,
2013-01-05 18:39:00,27.0,21.0,30.23,South,190,0.0,1.0,77,0.00,,,0.04,weatherlink.com 1.10,2013-01-05 23:39:00,
2013-01-05 18:54:00,26.5,21.0,30.23,WSW,238,0.0,1.0,79,0.00,,,0.04,weatherlink.com 1.10,2013-01-05 23:54:00,
2013-01-05 19:09:00,26.1,21.0,30.25,SE,141,0.0,0.0,80,0.00,,,0.04,weatherlink.com 1.10,2013-01-06 00:09:00,
2013-01-05 19:24:00,26.1,20.0,30.25,SE,124,0.0,1.0,79,0.00,,,0.04,weatherlink.com 1.10,2013-01-06 00:24:00,
2013-01-05 19:39:00,25.6,21.0,30.24,SE,124,0.0,1.0,81,0.00,,,0.04,weatherlink.com 1.10,2013-01-06 00:39:00,
2013-01-05 19:55:00,25.0,20.0,30.25,SE,124,0.0,1.0,82,0.00,,,0.04,weatherlink.com 1.10,2013-01-06 00:55:00,
2013-01-05 20:10:00,24.8,20.0,30.24,SE,124,0.0,0.0,83,0.00,,,0.04,weatherlink.com 1.10,2013-01-06 01:10:00,
2013-01-05 20:25:00,24.7,20.0,30.24,NNW,335,0.0,1.0,83,0.00,,,0.04,weatherlink.com 1.10,2013-01-06 01:25:00,
2013-01-05 20:40:00,24.2,20.0,30.22,NNW,335,0.0,1.0,84,0.00,,,0.04,weatherlink.com 1.10,2013-01-06 01:40:00,
2013-01-05 20:55:00,23.6,20.0,30.23,NNW,335,0.0,0.0,85,0.00,,,0.04,weatherlink.com 1.10,2013-01-06 01:55:00,
2013-01-05 21:10:00,23.4,20.0,30.23,NW,305,0.0,1.0,86,0.00,,,0.04,weatherlink.com 1.10,2013-01-06 02:10:00,
2013-01-05 21:25:00,22.8,20.0,30.22,NW,304,0.0,0.0,87,0.00,,,0.04,weatherlink.com 1.10,2013-01-06 02:25:00,
2013-01-05 21:40:00,22.0,19.0,30.24,NW,304,0.0,0.0,88,0.00,,,0.04,weatherlink.com 1.10,2013-01-06 02:40:00,
2013-01-05 21:55:00,22.0,19.0,30.24,NW,305,0.0,0.0,88,0.00,,,0.04,weatherlink.com 1.10,2013-01-06 02:55:00,
2013-01-05 22:10:00,21.8,19.0,30.23,NW,305,0.0,0.0,89,0.00,,,0.04,weatherlink.com 1.10,2013-01-06 03:10:00,
2013-01-05 22:25:00,21.5,19.0,30.24,NW,305,0.0,0.0,90,0.00,,,0.04,weatherlink.com 1.10,2013-01-06 03:25:00,
2013-01-05 22:40:00,21.2,19.0,30.23,NW,305,0.0,0.0,90,0.00,,,0.04,weatherlink.com 1.10,2013-01-06 03:40:00,
2013-01-05 22:55:00,20.9,19.0,30.22,NW,305,0.0,0.0,90,0.00,,,0.04,weatherlink.com 1.10,2013-01-06 03:55:00,
2013-01-05 23:10:00,20.9,19.0,30.21,SW,235,0.0,0.0,91,0.00,,,0.04,weatherlink.com 1.10,2013-01-06 04:10:00,
2013-01-05 23:25:00,21.0,19.0,30.21,SE,131,0.0,1.0,90,0.00,,,0.04,weatherlink.com 1.10,2013-01-06 04:25:00,
2013-01-05 23:40:00,21.1,19.0,30.20,ESE,108,0.0,1.0,91,0.00,,,0.04,weatherlink.com 1.10,2013-01-06 04:40:00,
2013-01-05 23:55:00,21.5,20.0,30.21,SW,223,0.0,1.0,92,0.00,,,0.04,weatherlink.com 1.10,2013-01-06 04:55:00,